This is the latest recevied weather packets stored in our database for station/object N3WXO-1. If no packets are shown the sender has not sent any weather packets the latest 10 day(s).
| Time | Temp. | Humidity | Pressure | Rain* | Wind** | Luminosity | Snow |
|---|---|---|---|---|---|---|---|
| 1777924533 | 23.33° C | 38% | 1009.1 hPa | 0 mm | - | 81 W/m² | - |
| 1777924228 | 23.33° C | 39% | 1009.2 hPa | 0 mm | - | 357 W/m² | - |
| 1777923927 | 23.33° C | 39% | 1009.2 hPa | 0 mm | - | 195 W/m² | - |
| 1777923623 | 22.78° C | 40% | 1009.3 hPa | 0 mm | - | 336 W/m² | - |
| 1777923337 | 22.78° C | 40% | 1009.4 hPa | 0 mm | - | 459 W/m² | - |
| 1777923029 | 22.78° C | 37% | 1009.5 hPa | 0 mm | - | 680 W/m² | - |
| 1777922720 | 22.78° C | 38% | 1009.6 hPa | 0 mm | - | 712 W/m² | - |
| 1777922429 | 22.78° C | 41% | 1009.7 hPa | 0 mm | - | 724 W/m² | - |
| 1777922125 | 22.78° C | 38% | 1009.7 hPa | 0 mm | - | 731 W/m² | - |
| 1777921824 | 22.78° C | 42% | 1009.7 hPa | 0 mm | - | 246 W/m² | - |
| 1777921538 | 22.78° C | 40% | 1009.7 hPa | 0 mm | - | 123 W/m² | - |
| 1777921231 | 22.78° C | 42% | 1009.8 hPa | 0 mm | - | 95 W/m² | - |
| 1777920922 | 22.22° C | 40% | 1009.9 hPa | 0 mm | - | 91 W/m² | - |
| 1777920636 | 22.22° C | 42% | 1009.9 hPa | 0 mm | - | 120 W/m² | - |
| 1777920324 | 22.22° C | 41% | 1009.9 hPa | 0 mm | - | 97 W/m² | - |
| 1777920038 | 22.22° C | 40% | 1010.1 hPa | 0 mm | - | 116 W/m² | - |
| 1777919732 | 22.22° C | 39% | 1010.1 hPa | 0 mm | - | 148 W/m² | - |
| 1777919431 | 22.22° C | 42% | 1010.1 hPa | 0 mm | - | 139 W/m² | - |
| 1777919127 | 22.22° C | 42% | 1010.2 hPa | 0 mm | - | 132 W/m² | - |
| 1777918823 | 21.67° C | 40% | 1010.1 hPa | 0 mm | - | 146 W/m² | - |
| 1777918537 | 21.67° C | 43% | 1010.3 hPa | 0 mm | - | 95 W/m² | - |
| 1777918222 | 21.67° C | 42% | 1010.4 hPa | 0 mm | - | 100 W/m² | - |
| 1777917937 | 21.67° C | 40% | 1010.4 hPa | 0 mm | - | 79 W/m² | - |
| 1777917631 | 21.67° C | 45% | 1010.3 hPa | 0 mm | - | 74 W/m² | - |
| 1777917326 | 21.67° C | 41% | 1010.5 hPa | 0 mm | - | 74 W/m² | - |
* Rain latest hour (hover to see other rain measurements)
** Current wind speed in m/s (hover to see current wind gust speed)